Regional Weather Roundup
Issued by NWS Wakefield, VA

Home | Current Version | Previous Version | Graphics & Text | Print | Product List | Glossary On
Versions: 1 2 3 4 5 6 7 8 9 10 11 12 13 14 15 16 17 18 19 20 21 22 23 24 25 26 27
000
ASUS41 KAKQ 251616
RWRAKQ

REGIONAL WEATHER ROUNDUP
NATIONAL WEATHER SERVICE WAKEFIELD VA
1200 PM EDT TUE APR 25 2017

Note: "fair" indicates few or no clouds below 12,000 feet with no
significant weather and/or obstructions to visibility. * = Denotes
station may not report precipitation (e.g., rain,snow,etc.),
thunder or fog.

VAZ042-051-052>054-056-251700-
NORTHERN VIRGINIA

CITY           SKY/WX    TMP DP  RH WIND       PRES   REMARKS
WASH NATIONAL  LGT RAIN  59  57  93 NE20G29   29.81F FOG
DULLES         LGT RAIN  58  55  90 NE15      29.82F FOG
FORT BELVOIR   LGT RAIN  57  55  94 NE10G18   29.78F
QUANTICO       CLOUDY    59  57  93 NE25G37   29.78F
FREDERICKSBRG* LGT RAIN  59  59 100 NE9G20    29.74F
STAFFORD*      RAIN      57  57 100 NE14      29.80F
WARRENTON      RAIN      58  55  88 N10       29.79F
CULPEPER*      RAIN      58  57  97 N12G18    29.79F
MANASSAS*      LGT RAIN  58  56  93 NE15      29.80F FOG
LEESBURG*      DRIZZLE   57  57 100 NE8       29.85F
WINCHESTER     LGT RAIN  52  50  93 N9        29.86F
FRONT ROYAL*   CLOUDY    52  52 100 NE3       29.85F
LURAY*         RAIN      52  52 100 N14       29.84F
$$

VAZ048-049-060>072-079>083-251700-
CENTRAL AND SOUTH CENTRAL VIRGINIA

CITY           SKY/WX    TMP DP  RH WIND       PRES   REMARKS
RICHMOND       DRZL/FOG  63  63 100 NE17G25   29.66S VSB 1
CHESTERFIELD*  CLOUDY    63  46  55 NE9       29.67S
PETERSBURG*    LGT RAIN  63  62  96 NE9       29.66R
HANOVER        LGT RAIN  62  60  93 NE8G20    29.70F FOG
TAPPAHANNOCK*  CLOUDY    62  62 100 NE12G20   29.71S FOG
QUINTON*       CLOUDY    63  63 100 NE14G21   29.66R FOG
CHARLOTTSVILLE RAIN      58  55  90 NE16G25   29.75F FOG
GORDONSVILLE*  CLOUDY    56  55  97 N10G20    29.75F
ORANGE*        RAIN      54  54 100 N15G24    29.76F
LOUISA*        CLOUDY    61  59  94 N14G21    29.72F
BUMPASS*       CLOUDY    58  58 100 N8G16     29.72F
FARMVILLE*     LGT RAIN  59  59 100 N15G28    29.66S
CREWE*         CLOUDY    60  60 100 N12G18    29.64S
FORT PICKETT*  CLOUDY    62  59  88 NE15G21   29.63R
CHASE CITY*    CLOUDY    58  57  94 N12G17    29.63S
CLARKSVILLE*   CLOUDY    57  57 100 N5        29.63S
SOUTH HILL*    CLOUDY    62  62 100 NE3       29.66R
LAWRENCEVILLE* CLOUDY    66  64  91 E5        29.61R
EMPORIA*       MOSUNNY   68  61  77 SE12G17   29.64R
$$

VAZ088>098-251700-
SOUTHEAST VIRGINIA

CITY           SKY/WX    TMP DP  RH WIND       PRES   REMARKS
NORFOLK        MOSUNNY   74  60  61 S14G21    29.64R
VIRGINIA BEACH PTSUNNY   69  60  73 SE7       29.64S
NORFOLK NAVAL  PTSUNNY   73  58  59 SE12      29.66R
WEST POINT*    CLOUDY    64  63  96 E12G18    29.68R
SALUDA*        CLOUDY    64  63  98 E10G16    29.68S
NEWPORT NEWS   MOSUNNY   73  64  73 SE8G20    29.65R
LANGLEY AFB    PTSUNNY   73  64  73 S10       29.65R
FORT EUSTIS    SUNNY     73  65  74 SE8       29.62R
WILLIAMSBURG*  CLOUDY    68  68 100 CALM      29.66R
HR EXEC AP*    PTSUNNY   72  63  73 S8        29.62S
FRANKLIN*      PTSUNNY   70  60  70 SE8       29.64S
US460-WAKEFLD  PTSUNNY   71  65  81 VRB5      29.63R
$$

VAZ020-022-025-037-045-251700-
WEST CENTRAL AND SOUTHWEST VIRGINIA

CITY           SKY/WX    TMP DP  RH WIND       PRES   REMARKS
STAUNTON*      DRIZZLE   51  50  96 N15G21    29.83F
WAYNESBORO*    CLOUDY    50  50 100 N12G21    29.80F
HOT SPRINGS VA LGT RAIN  43  41  93 NE15G25   29.80F VSB<1/4
LYNCHBURG      CLOUDY    58  55  90 N14G22    29.71S
DANVILLE       LGT RAIN  57  57 100 NE7       29.68F FOG
SOUTH BOSTON*  CLOUDY    58  57  96 N10G18    29.65F
MARTINSVILLE   CLOUDY    58  55  92 N9        29.73S
ROANOKE        CLOUDY    59  55  87 NE12      29.76F
BLACKSBURG     DRIZZLE   57  54  89 NE5       29.80S
DUBLIN*        CLOUDY    58  52  82 N10       29.79S
MARION*        CLOUDY    62  56  82 CALM      29.81F
HILLSVILLE*    CLOUDY    54  54 100 CALM      29.77R FOG
RICHLANDS*     CLOUDY    57  53  86 CALM      29.81R
WISE*          CLOUDY    57  55  94 CALM      29.83S
ABINGDON*      CLOUDY    63  56  78 SE3       29.79F
$$

MDZ021>025-VAZ099-100-251700-
SOUTHERN MARYLAND AND THE DELMARVA PENINSULA

CITY           SKY/WX    TMP DP  RH WIND       PRES   REMARKS
PATUXENT RIVER CLOUDY    60  60 100 NE18G31   29.74F FOG
BAY BRIDGE APT DRIZZLE   57  55  94 NE10G21   29.82F FOG
LEONARDTOWN    CLOUDY    59  55  88 NE7       29.76F
DOVER          LGT RAIN  57  57 100 NE18G29   29.85F
GEORGETOWN     LGT RAIN  59  32  36 MISG      29.80F
EASTON         LGT RAIN  59  57  94 NE17G25   29.83F FOG
CAMBRIDGE      PTSUNNY   59  57  94 NE12G20   29.77F FOG
SALISBURY      LGT RAIN  61  60  97 E16G23    29.75S FOG
OCEAN CITY     HVY RAIN  57  56  96 E20G28    29.76F VSB 1/2
WALLOPS ISLAND CLOUDY    60  60 100 E14G22    29.74R
ACCOMACK*      CLOUDY    63  30  29 E10G20    29.71R HAZE
$$

NCZ012>017-030>032-251700-
NORTH CENTRAL AND EASTERN NORTH CAROLINA

CITY           SKY/WX    TMP DP  RH WIND       PRES   REMARKS
ROANOKE RAPIDS FAIR      68  61  77 SW8       29.62R
RALEIGH        PTSUNNY   65  59  81 CALM      29.65R
ELIZABETH CITY MOSUNNY   72  64  76 E9        29.65S
AHOSKIE*         N/A     69  60  72 SE3       29.63R
EDENTON*       SUNNY     72  62  72 S6        29.65S
CURRITUCK*     MOSUNNY   72  62  71 SE6       29.66S
KILL DEVIL HLS SUNNY     72  62  71 CALM      29.65S
MANTEO         MOSUNNY   73  63  69 SE8       29.66S
CAPE HATTERAS  RAIN      62  59  90 W3        29.67R VSB 1/2
TARBORO*       NOT AVBL
GOLDSBORO      MOSUNNY   70  63  78 CALM      29.61F
WASHINGTON     CLOUDY    68  60  76 CALM      29.63F
GREENVILLE     PTSUNNY   70  61  73 CALM      29.66S
NEW BERN       MOSUNNY   69  63  81 NE3       29.63F
WILMINGTON     MOSUNNY   71  60  68 W12       29.63S
$$

VAZ048-251700-
ELSEWHERE

CITY           SKY/WX    TMP DP  RH WIND       PRES   REMARKS
HARRISBURG PA  CLOUDY    54  51  90 E13G22    29.95F FOG
BALTIMORE      LGT RAIN  57  56  96 NE21G28   29.84F FOG
ANNAPOLIS      LGT RAIN  58  56  93 NE12G23   29.82F FOG
ANDREWS AFB    LGT RAIN  56  55  95 NE22G29   29.78F FOG
PHILADELPHIA   LGT RAIN  56  53  90 NE14G24   29.96F FOG
HENDERSON NC   CLOUDY    56  55  93 W5        29.64S FOG
GREENSBORO     CLOUDY    58  57  97 N9        29.69S FOG
ROCKY MOUNT    MOSUNNY   70  61  73 SW6       29.62F
$$

VAZ100-251700-
MARINE

STATION/POSITION TIME  TEMP    WIND        PRES    WAVE   SWELL
                       AIR SEA DIR/SP/G            HT/PER HT/PER
                 (UTC) (F)     (DEG/KT/KT) (MB)    (FT/S) (FT/S)
CAPE MAY NJ      1548   57 55   50/ 20/ 32 1010.1F
LEWES DE         1548   55 54   70/ 26/ 30 1009.3F
15NM E FENWICK I 1550   55 51   60/ 23/ 29 1008.5F   9/ 8   5/11
OCEAN-CITY-INLET 1548   56 54   90/ 16/ 23 1008.4F
WACHAPREAGUE VA  1548   60 58   80/ 11/ 14 1005.8R
THOMAS POINT MD  1600   57 56   40/ 22/ 24   N/A
GOOSES REEF MD   1600   58 52   50/ 21/ 25 1008.0    3/ 3
COVE POINT MD    1542   59      70/ 25/ 32 1007.9F
SOLOMONS ISLAND  1548   60 60   40/ 15/ 23   N/A
BISHOPS HEAD MD  1548   60 58   50/ 17/ 23 1007.3R
PINEY POINT MD   1548           80/ 14/ 17   N/A
POTOMAC MD       1600   60 59   70/ 17/ 23 1005.5    2/ 3
LEWISETTA VA     1548   60 60   70/ 20/ 27 1005.9R
RAPPAHANNOCK LGT 1548           90/ 12/ 13 1005.8R
STINGRAY PT      1600   62 61  110/ 10/ 12 1005.2    3/ 4
YORK RVR RNG VA  1548   62     150/  9/ 12 1003.5R
YORKTOWN VA      1548   63 62   90/ 11/ 13 1003.8R
JAMESTOWN VA     1600   65 67   90/  6/ 10   N/A     0
DOMINION TERM VA 1548   67     170/ 10/ 11 1003.9R
KIPTOPEKE VA     1548      60  150/ 15/ 18   N/A
CHES BAY BRIDGE  1548   66 61  170/ 10/ 13   N/A
CAPE HENRY VA    1548   62     120/ 12/ 16   N/A
WILLOUBY STN VA  1548   70     160/ 17/ 19 1004.7R
S CRANEY ISL VA  1548   69     180/ 12/ 16 1003.6R
CAPE HENRY BUOY  1542      55                N/A     8/11   3/11
1ST LANDING BUOY 1600   63 61              1004.2    4/ 5
CAPE CHARLES BUO 1551      56                N/A     8/11   3/11
64NM E OF VA BCH 1550   60 54  110/ 16/ 17 1005.5F  14/11  13/11
DUCK PIER NC     1548   65 60  120/  9/  9 1003.7F
44100 DUCK FRF   1535      55                N/A    10/12   7/12
44056 DUCK FRF   1530      59                N/A     9/11   5/11
OREGON INLET NC  1542   69 63   50/  6/  7 1004.0F
HATTERAS NC      1548   63 67  250/  5/  6 1004.5R
DIAMOND SHLS NC  1550   68 78  260/ 14/ 19 1004.1R  11/11  10/11
CAPE LOOKOUT NC  1600   65      CALM  /  1 1003.6R
$$




USA.gov is the U.S. government's official web portal to all federal, state and local government web resources and services.